Location: Hains Lake
(37.8540°N, 99.8578°W)
Time: 22:02:39
(UTC+00:00)

Vanguard 2 Rocket - Pass Details

Date: 22 April 2021
Orbit: 553 x 3326 km, 32.9° (Epoch: 05 May)

Event Time Altitude Azimuth Distance (km) Brightness Sun altitude
Rises 21:00:24 0° 258° (WSW) 6,506 11.9 49.4°
Reaches altitude 10° 21:04:17 10° 257° (WSW) 5,743 11.9 48.7°
Maximum altitude 21:23:31 76° 177° (S) 3,394 10.7 45.3°
Drops below altitude 10° 21:42:18 10° 96° (E) 5,631 10.6 41.9°
Sets 21:46:04 0° 95° (E) 6,380 10.8 41.2°
